Regional Weather Roundup
Issued by NWS

Home | Current Version | Previous Version | Text Only | Print | Product List | Glossary On
Versions: 1 2 3 4 5 6 7 8 9 10 11 12 13 14 15 16 17 18 19 20 21 22 23 24 25 26 27 28 29 30 31 32 33 34 35 36 37 38 39 40 41 42 43 44 45 46 47 48 49 50
000
ASUS44 KJAN 221710
RWRMS

MISSISSIPPI HOURLY WEATHER ROUNDUP
NATIONAL WEATHER SERVICE JACKSON MS
1200 PM CDT TUE AUG 22 2017

NOTE: "FAIR: INDICATES FEW OR NO CLOUDS BELOW 12,000 FEET WITH NO
SIGNIFICANT WEATHER AND/OR OBSTRUCTIONS TO VISIBILITY.

MSZ001>002-007>008-010>013-018>021-025>028-034>036-221800-
NORTHWEST MISSISSIPPI

CITY           SKY/WX    TMP DP  RH WIND       PRES   REMARKS
BATESVILLE     FAIR      88  75  64 SW9       30.09S HX  98
CLARKSDALE       N/A     90  77  66 W12       30.07F HX 102
CLEVELAND      FAIR      91  74  59 W7        30.07F HX 100
GREENWOOD      SUNNY     89  76  65 VRB3      30.08F HX 100
GREENVILLE     SUNNY     90  74  59 W7        30.07F HX  99
OLIVE BRANCH   MOSUNNY  N/A N/A N/A SW13      30.05F
OXFORD         FAIR      88  72  58 SW9       30.10F HX  94
TUNICA           N/A     88  75  66 SW6       30.07F HX  97
WINONA         FAIR      87  76  69 CALM      30.10S HX  97
$$

MSZ003>006-009-014>017-022>024-029>033-037>039-221800-
NORTHEAST MISSISSIPPI

CITY           SKY/WX    TMP DP  RH WIND       PRES   REMARKS
COLUMBUS AFB   SUNNY     89  80  74 W5        30.09S HX 107
STARKVILLE     FAIR      88  73  62 CALM      30.10F HX  96
TUPELO           N/A     89  71  55 VRB5      30.08F HX  95
$$

MSZ040-058-221800-
CENTRAL MISSISSIPPI

CITY           SKY/WX    TMP DP  RH WIND       PRES   REMARKS
JACKSON INTL   MOSUNNY   90  75  61 S3        30.10F HX 100
JACKSON HAWKNS MOSUNNY   87  75  67 CALM      30.11S HX  96
MADISON        PTSUNNY   88  72  58 CALM      30.10S HX  94
MERIDIAN KEY   CLOUDY    87  75  67 W6        30.11F HX  96
MERIDIAN NAS   CLOUDY    89  75  63 CALM      30.10F HX  99
RAYMOND        FAIR      88  82  84 VRB6      30.09F HX 108
VICKSBURG VKS  MOSUNNY   90  75  62 VRB5      30.08F HX 100
$$

MSZ059>079-221800-
SOUTH MISSISSIPPI

CITY           SKY/WX    TMP DP  RH WIND       PRES   REMARKS
COLUMBIA       FAIR      90 N/A N/A CALM      30.13F
HATTIESBURG    PTSUNNY   88  74  63 CALM      30.11F HX  96
LAUREL         PTSUNNY   86  73  64 CALM      30.11F HX  93
MCCOMB         SUNNY     89  71  55 N5        30.11F HX  95
NATCHEZ        MOSUNNY   87  76  69 N3        30.11F HX  97
PINE BELT      MOSUNNY   88  75  65 CALM      30.12F HX  97
$$

MSZ080>082-221800-
COASTAL MISSISSIPPI

CITY           SKY/WX    TMP DP  RH WIND       PRES   REMARKS
BAY ST LOUIS   MOSUNNY   90  79  70 VRB3      30.11R HX 105
BILOXI         LGT RAIN  84  77  79 SE5       30.11R HX  94
PASCAGOULA     TSTM      79  73  82 S8        30.12R
GULFPORT       CLOUDY    85  76  74 SE9       30.11R HX  94
$$

LAZ007>009-015>016-023>026-221800-
NORTHEAST LOUISIANA

CITY           SKY/WX    TMP DP  RH WIND       PRES   REMARKS
BASTROP        FAIR      90  76  63 NW5       30.09F HX 102
TALLULAH/VBURG NOT AVBL
VIDALIA          N/A    N/A N/A N/A MISG      30.09S
$$



USA.gov is the U.S. government's official web portal to all federal, state and local government web resources and services.